Time,TemperatureF,DewpointF,PressureIn,WindDirection,WindDirectionDegrees,WindSpeedMPH,WindSpeedGustMPH,Humidity,HourlyPrecipIn,Conditions,Clouds,dailyrainin,SoftwareType,DateUTC
2015-03-06 00:01:00,4.0,-5.2,30.57,WSW,237,1.0,6.0,65,0.00,,,0.00,Wunderground v.1.15,2015-03-06 06:01:00,
2015-03-06 00:07:00,4.0,-5.2,30.57,WSW,237,1.0,6.0,65,0.00,,,0.00,Wunderground v.1.15,2015-03-06 06:07:00,
2015-03-06 00:12:00,3.9,-5.3,30.57,WSW,237,0.0,0.0,65,0.00,,,0.00,Wunderground v.1.15,2015-03-06 06:12:00,
2015-03-06 00:18:00,3.8,-5.4,30.56,WSW,237,0.0,0.0,65,0.00,,,0.00,Wunderground v.1.15,2015-03-06 06:18:00,
2015-03-06 00:23:00,3.7,-5.5,30.56,WSW,238,0.0,0.0,65,0.00,,,0.00,Wunderground v.1.15,2015-03-06 06:23:00,
2015-03-06 00:28:00,3.5,-5.6,30.56,WSW,237,0.0,3.0,65,0.00,,,0.00,Wunderground v.1.15,2015-03-06 06:28:00,
2015-03-06 00:33:00,3.5,-5.3,30.56,WSW,238,0.0,7.0,66,0.00,,,0.00,Wunderground v.1.15,2015-03-06 06:33:00,
2015-03-06 00:39:00,3.4,-5.4,30.56,WSW,238,0.0,7.0,66,0.00,,,0.00,Wunderground v.1.15,2015-03-06 06:39:00,
2015-03-06 00:44:00,3.3,-5.5,30.56,WSW,237,0.0,1.0,66,0.00,,,0.00,Wunderground v.1.15,2015-03-06 06:44:00,
2015-03-06 00:49:00,3.2,-5.6,30.56,WSW,238,0.0,1.0,66,0.00,,,0.00,Wunderground v.1.15,2015-03-06 06:49:00,
2015-03-06 00:55:00,3.1,-5.7,30.56,WSW,238,0.0,2.0,66,0.00,,,0.00,Wunderground v.1.15,2015-03-06 06:55:00,
2015-03-06 01:00:00,3.1,-5.7,30.56,WSW,237,0.0,2.0,66,0.00,,,0.00,Wunderground v.1.15,2015-03-06 07:00:00,
2015-03-06 01:06:00,3.1,-5.4,30.56,WSW,238,0.0,5.0,67,0.00,,,0.00,Wunderground v.1.15,2015-03-06 07:06:00,
2015-03-06 01:12:00,3.0,-5.5,30.56,WSW,238,0.0,2.0,67,0.00,,,0.00,Wunderground v.1.15,2015-03-06 07:12:00,
2015-03-06 01:17:00,2.9,-5.6,30.56,WSW,238,1.0,3.0,67,0.00,,,0.00,Wunderground v.1.15,2015-03-06 07:17:00,
2015-03-06 01:23:00,2.9,-5.6,30.56,WSW,237,1.0,2.0,67,0.00,,,0.00,Wunderground v.1.15,2015-03-06 07:23:00,
2015-03-06 01:28:00,2.8,-5.7,30.56,WSW,238,1.0,2.0,67,0.00,,,0.00,Wunderground v.1.15,2015-03-06 07:28:00,
2015-03-06 01:34:00,2.8,-5.7,30.55,WSW,237,1.0,4.0,67,0.00,,,0.00,Wunderground v.1.15,2015-03-06 07:34:00,
2015-03-06 01:39:00,2.7,-5.8,30.55,WSW,238,1.0,4.0,67,0.00,,,0.00,Wunderground v.1.15,2015-03-06 07:39:00,
2015-03-06 01:45:00,2.4,-6.1,30.55,WSW,238,1.0,2.0,67,0.00,,,0.00,Wunderground v.1.15,2015-03-06 07:45:00,
2015-03-06 01:50:00,2.4,-5.8,30.55,WSW,237,2.0,2.0,68,0.00,,,0.00,Wunderground v.1.15,2015-03-06 07:50:00,
2015-03-06 01:56:00,1.9,-6.2,30.55,WSW,237,1.0,2.0,68,0.00,,,0.00,Wunderground v.1.15,2015-03-06 07:56:00,
2015-03-06 02:01:00,2.0,-5.8,30.54,WSW,238,1.0,3.0,69,0.00,,,0.00,Wunderground v.1.15,2015-03-06 08:01:00,
2015-03-06 02:07:00,2.2,-5.6,30.54,WSW,237,2.0,4.0,69,0.00,,,0.00,Wunderground v.1.15,2015-03-06 08:07:00,
2015-03-06 02:12:00,2.2,-5.6,30.54,SW,233,3.0,3.0,69,0.00,,,0.00,Wunderground v.1.15,2015-03-06 08:12:00,
2015-03-06 02:17:00,2.3,-5.6,30.53,SW,232,3.0,4.0,69,0.00,,,0.00,Wunderground v.1.15,2015-03-06 08:17:00,
2015-03-06 02:23:00,2.2,-5.6,30.53,SW,232,2.0,3.0,69,0.00,,,0.00,Wunderground v.1.15,2015-03-06 08:23:00,
2015-03-06 02:28:00,2.1,-5.7,30.53,SW,232,2.0,3.0,69,0.00,,,0.00,Wunderground v.1.15,2015-03-06 08:28:00,
2015-03-06 02:33:00,2.0,-5.8,30.52,SW,232,2.0,5.0,69,0.00,,,0.00,Wunderground v.1.15,2015-03-06 08:33:00,
2015-03-06 02:39:00,1.9,-5.9,30.52,SW,232,2.0,5.0,69,0.00,,,0.00,Wunderground v.1.15,2015-03-06 08:39:00,
2015-03-06 02:45:00,1.8,-6.0,30.52,SW,232,2.0,3.0,69,0.00,,,0.00,Wunderground v.1.15,2015-03-06 08:45:00,
2015-03-06 02:51:00,1.6,-6.2,30.52,SW,230,2.0,3.0,69,0.00,,,0.00,Wunderground v.1.15,2015-03-06 08:51:00,
2015-03-06 02:56:00,1.7,-5.8,30.52,SW,226,3.0,4.0,70,0.00,,,0.00,Wunderground v.1.15,2015-03-06 08:56:00,
2015-03-06 03:01:00,1.7,-5.8,30.52,SW,225,3.0,5.0,70,0.00,,,0.00,Wunderground v.1.15,2015-03-06 09:01:00,
2015-03-06 03:07:00,1.6,-5.9,30.52,SW,225,3.0,5.0,70,0.00,,,0.00,Wunderground v.1.15,2015-03-06 09:07:00,
2015-03-06 03:12:00,1.6,-5.9,30.52,SW,225,2.0,3.0,70,0.00,,,0.00,Wunderground v.1.15,2015-03-06 09:12:00,
2015-03-06 03:17:00,1.7,-5.8,30.51,SW,225,1.0,3.0,70,0.00,,,0.00,Wunderground v.1.15,2015-03-06 09:17:00,
2015-03-06 03:23:00,1.7,-5.8,30.51,SW,225,2.0,2.0,70,0.00,,,0.00,Wunderground v.1.15,2015-03-06 09:23:00,
2015-03-06 03:28:00,1.5,-6.0,30.51,SW,225,1.0,2.0,70,0.00,,,0.00,Wunderground v.1.15,2015-03-06 09:28:00,
2015-03-06 03:33:00,1.4,-6.1,30.51,SW,225,1.0,6.0,70,0.00,,,0.00,Wunderground v.1.15,2015-03-06 09:33:00,
2015-03-06 03:39:00,1.3,-5.9,30.51,SW,225,2.0,6.0,71,0.00,,,0.00,Wunderground v.1.15,2015-03-06 09:39:00,
2015-03-06 03:45:00,1.3,-5.9,30.51,SW,225,1.0,3.0,71,0.00,,,0.00,Wunderground v.1.15,2015-03-06 09:45:00,
2015-03-06 03:50:00,1.3,-5.9,30.51,SW,225,2.0,2.0,71,0.00,,,0.00,Wunderground v.1.15,2015-03-06 09:50:00,
2015-03-06 03:56:00,1.3,-5.9,30.50,SW,225,2.0,4.0,71,0.00,,,0.00,Wunderground v.1.15,2015-03-06 09:56:00,
2015-03-06 04:01:00,1.3,-5.9,30.51,SW,223,2.0,6.0,71,0.00,,,0.00,Wunderground v.1.15,2015-03-06 10:01:00,
2015-03-06 04:07:00,1.3,-5.9,30.50,SW,223,2.0,6.0,71,0.00,,,0.00,Wunderground v.1.15,2015-03-06 10:07:00,
2015-03-06 04:12:00,1.3,-5.9,30.50,SW,223,2.0,5.0,71,0.00,,,0.00,Wunderground v.1.15,2015-03-06 10:12:00,
2015-03-06 04:18:00,1.3,-5.6,30.50,SW,222,3.0,5.0,72,0.00,,,0.00,Wunderground v.1.15,2015-03-06 10:18:00,
2015-03-06 04:23:00,1.4,-5.5,30.50,SW,221,3.0,3.0,72,0.00,,,0.00,Wunderground v.1.15,2015-03-06 10:23:00,
2015-03-06 04:28:00,1.5,-5.4,30.50,SW,221,3.0,4.0,72,0.00,,,0.00,Wunderground v.1.15,2015-03-06 10:28:00,
2015-03-06 04:33:00,1.6,-5.3,30.49,SW,221,2.0,4.0,72,0.00,,,0.00,Wunderground v.1.15,2015-03-06 10:33:00,
2015-03-06 04:39:00,1.6,-5.3,30.49,SW,221,2.0,4.0,72,0.00,,,0.00,Wunderground v.1.15,2015-03-06 10:39:00,
2015-03-06 04:45:00,1.5,-5.4,30.49,SW,221,1.0,2.0,72,0.00,,,0.00,Wunderground v.1.15,2015-03-06 10:45:00,
2015-03-06 04:51:00,1.5,-5.4,30.49,SW,221,0.0,0.0,72,0.00,,,0.00,Wunderground v.1.15,2015-03-06 10:51:00,
2015-03-06 04:57:00,1.6,-5.3,30.49,SW,221,0.0,0.0,72,0.00,,,0.00,Wunderground v.1.15,2015-03-06 10:57:00,
2015-03-06 05:02:00,1.7,-5.2,30.49,SW,221,0.0,6.0,72,0.00,,,0.00,Wunderground v.1.15,2015-03-06 11:02:00,
2015-03-06 05:08:00,2.0,-5.0,30.49,SW,221,0.0,6.0,72,0.00,,,0.00,Wunderground v.1.15,2015-03-06 11:08:00,
2015-03-06 05:13:00,2.3,-4.7,30.49,SW,221,1.0,2.0,72,0.00,,,0.00,Wunderground v.1.15,2015-03-06 11:13:00,
2015-03-06 05:18:00,2.7,-4.3,30.49,SW,221,1.0,2.0,72,0.00,,,0.00,Wunderground v.1.15,2015-03-06 11:18:00,
2015-03-06 05:24:00,2.9,-4.1,30.49,SW,225,1.0,4.0,72,0.00,,,0.00,Wunderground v.1.15,2015-03-06 11:24:00,
2015-03-06 05:29:00,3.3,-3.7,30.49,SW,226,2.0,4.0,72,0.00,,,0.00,Wunderground v.1.15,2015-03-06 11:29:00,
2015-03-06 05:35:00,3.6,-3.7,30.48,SW,232,3.0,7.0,71,0.00,,,0.00,Wunderground v.1.15,2015-03-06 11:35:00,
2015-03-06 05:40:00,3.8,-3.5,30.48,SW,230,3.0,4.0,71,0.00,,,0.00,Wunderground v.1.15,2015-03-06 11:40:00,
2015-03-06 05:46:00,4.1,-3.5,30.48,SW,223,3.0,5.0,70,0.00,,,0.00,Wunderground v.1.15,2015-03-06 11:46:00,
2015-03-06 05:52:00,4.3,-3.3,30.48,SW,222,3.0,4.0,70,0.00,,,0.00,Wunderground v.1.15,2015-03-06 11:52:00,
2015-03-06 05:57:00,4.4,-3.2,30.48,SW,225,2.0,7.0,70,0.00,,,0.00,Wunderground v.1.15,2015-03-06 11:57:00,
2015-03-06 06:03:00,4.5,-3.1,30.48,WSW,244,3.0,6.0,70,0.00,,,0.00,Wunderground v.1.15,2015-03-06 12:03:00,
2015-03-06 06:09:00,4.4,-3.5,30.47,WSW,238,4.0,6.0,69,0.00,,,0.00,Wunderground v.1.15,2015-03-06 12:09:00,
2015-03-06 06:15:00,4.2,-3.7,30.47,SW,233,4.0,11.0,69,0.00,,,0.00,Wunderground v.1.15,2015-03-06 12:15:00,
2015-03-06 06:20:00,4.1,-3.5,30.47,SW,230,3.0,5.0,70,0.00,,,0.00,Wunderground v.1.15,2015-03-06 12:20:00,
2015-03-06 06:26:00,4.1,-3.5,30.47,SW,231,2.0,5.0,70,0.00,,,0.00,Wunderground v.1.15,2015-03-06 12:26:00,
2015-03-06 06:31:00,4.1,-3.5,30.46,SW,231,1.0,7.0,70,0.00,,,0.00,Wunderground v.1.15,2015-03-06 12:31:00,
2015-03-06 06:37:00,4.1,-3.5,30.46,SW,231,2.0,7.0,70,0.00,,,0.00,Wunderground v.1.15,2015-03-06 12:37:00,
2015-03-06 06:42:00,4.2,-3.1,30.46,SW,233,2.0,5.0,71,0.00,,,0.00,Wunderground v.1.15,2015-03-06 12:42:00,
2015-03-06 06:48:00,4.3,-3.0,30.47,SW,234,2.0,5.0,71,0.00,,,0.00,Wunderground v.1.15,2015-03-06 12:48:00,
2015-03-06 06:53:00,4.3,-3.0,30.46,SW,234,1.0,3.0,71,0.00,,,0.00,Wunderground v.1.15,2015-03-06 12:53:00,
2015-03-06 06:58:00,4.6,-2.7,30.46,SW,228,2.0,4.0,71,0.00,,,0.00,Wunderground v.1.15,2015-03-06 12:58:00,
2015-03-06 07:03:00,5.0,-2.4,30.45,SW,228,2.0,11.0,71,0.00,,,0.00,Wunderground v.1.15,2015-03-06 13:03:00,
2015-03-06 07:09:00,5.4,-2.0,30.45,SW,229,2.0,11.0,71,0.00,,,0.00,Wunderground v.1.15,2015-03-06 13:09:00,
2015-03-06 07:15:00,5.9,-1.5,30.44,SW,224,2.0,6.0,71,0.00,,,0.00,Wunderground v.1.15,2015-03-06 13:15:00,
2015-03-06 07:20:00,6.4,-1.0,30.44,SW,217,3.0,7.0,71,0.00,,,0.00,Wunderground v.1.15,2015-03-06 13:20:00,
2015-03-06 07:25:00,6.7,-1.0,30.44,SW,219,5.0,7.0,70,0.00,,,0.00,Wunderground v.1.15,2015-03-06 13:25:00,
2015-03-06 07:31:00,7.0,-0.7,30.44,SW,223,5.0,11.0,70,0.00,,,0.00,Wunderground v.1.15,2015-03-06 13:31:00,
2015-03-06 07:36:00,7.2,-0.8,30.44,SW,221,4.0,11.0,69,0.00,,,0.00,Wunderground v.1.15,2015-03-06 13:36:00,
2015-03-06 07:42:00,7.6,-0.5,30.44,SW,221,3.0,4.0,69,0.00,,,0.00,Wunderground v.1.15,2015-03-06 13:42:00,
2015-03-06 07:47:00,8.1,-0.3,30.44,SW,221,2.0,4.0,68,0.00,,,0.00,Wunderground v.1.15,2015-03-06 13:47:00,
2015-03-06 07:53:00,8.6,0.2,30.44,SW,227,3.0,6.0,68,0.00,,,0.00,Wunderground v.1.15,2015-03-06 13:53:00,
2015-03-06 07:58:00,9.0,0.3,30.44,SW,219,4.0,6.0,67,0.00,,,0.00,Wunderground v.1.15,2015-03-06 13:58:00,
2015-03-06 08:03:00,9.5,0.7,30.43,SSW,211,4.0,9.0,67,0.00,,,0.00,Wunderground v.1.15,2015-03-06 14:03:00,
2015-03-06 08:09:00,9.9,0.8,30.43,SW,234,6.0,10.0,66,0.00,,,0.00,Wunderground v.1.15,2015-03-06 14:09:00,
2015-03-06 08:14:00,10.1,0.7,30.43,SW,226,7.0,9.0,65,0.00,,,0.00,Wunderground v.1.15,2015-03-06 14:14:00,
2015-03-06 08:20:00,10.8,1.3,30.43,WSW,242,6.0,6.0,65,0.00,,,0.00,Wunderground v.1.15,2015-03-06 14:20:00,
2015-03-06 08:25:00,11.4,1.6,30.43,SW,233,6.0,10.0,64,0.00,,,0.00,Wunderground v.1.15,2015-03-06 14:25:00,
2015-03-06 08:31:00,11.9,2.0,30.43,SW,233,7.0,15.0,64,0.00,,,0.00,Wunderground v.1.15,2015-03-06 14:31:00,
2015-03-06 08:36:00,12.3,2.1,30.42,SW,234,8.0,15.0,63,0.00,,,0.00,Wunderground v.1.15,2015-03-06 14:36:00,
2015-03-06 08:41:00,12.7,2.5,30.42,SW,218,8.0,10.0,63,0.00,,,0.00,Wunderground v.1.15,2015-03-06 14:41:00,
2015-03-06 08:47:00,13.4,3.1,30.42,SW,223,6.0,10.0,63,0.00,,,0.00,Wunderground v.1.15,2015-03-06 14:47:00,